When you browse on this site, cookies collect data to enhance your experience and personalize the content and advertising you see.
Visit our Privacy Policy to learn more. By continuing to use the site, you agree to this use of cookies and data.
  • In Hungary
  • List of Countries
  • For 7 days
  • Water Temperature
  • Weather Map
  • News
  • Weather Widgets
  • user-avatar
    Login

    Hourly Weather Krasnaya Dubrava

    Today, 23 October, Wednesday

    Time Temperature Precipitation Wind Pressure Humidity
    00:00 +14°C° 0 mm 1 mps 756 mmHg 68%
    01:00 +14°C° 0 mm 1 mps 756 mmHg 70%
    02:00 +13°C° 0 mm 1 mps 756 mmHg 72%
    03:00 +12°C° 0 mm 1 mps 756 mmHg 72%
    04:00 +12°C° 0 mm 1 mps 756 mmHg 73%
    05:00 +12°C° 0 mm 1 mps 756 mmHg 75%
    06:00 +11°C° 0 mm 1 mps 756 mmHg 76%
    07:00 +12°C° 0 mm 1 mps 757 mmHg 72%
    08:00 +13°C° 0 mm 1 mps 757 mmHg 69%
    09:00 +13°C° 0 mm 0 mps 757 mmHg 65%
    10:00 +16°C° 0 mm 1 mps 757 mmHg 60%
    11:00 +18°C° 0 mm 1 mps 757 mmHg 56%
    12:00 +19°C° 0 mm 1 mps 756 mmHg 52%
    13:00 +20°C° 0 mm 1 mps 756 mmHg 51%
    14:00 +19°C° 0 mm 2 mps 756 mmHg 50%
    15:00 +20°C° 0 mm 2 mps 756 mmHg 49%
    16:00 +18°C° 0 mm 2 mps 755 mmHg 53%
    17:00 +17°C° 0 mm 2 mps 755 mmHg 58%
    18:00 +16°C° 0 mm 1 mps 755 mmHg 62%
    19:00 +16°C° 0 mm 1 mps 755 mmHg 62%
    20:00 +16°C° 0 mm 1 mps 755 mmHg 63%
    21:00 +15°C° 0 mm 1 mps 755 mmHg 64%
    22:00 +15°C° 0 mm 1 mps 755 mmHg 65%
    23:00 +15°C° 0 mm 2 mps 755 mmHg 66%

    Tomorrow, 24 October, Thursday

    Time Temperature Precipitation Wind Pressure Humidity
    00:00 +14°C° 0 mm 2 mps 755 mmHg 67%
    01:00 +14°C° 0 mm 2 mps 755 mmHg 69%
    02:00 +13°C° 0 mm 2 mps 755 mmHg 70%
    03:00 +13°C° 0 mm 1 mps 755 mmHg 72%
    04:00 +13°C° 0 mm 1 mps 755 mmHg 72%
    05:00 +12°C° 0 mm 1 mps 755 mmHg 73%
    06:00 +12°C° 0 mm 1 mps 755 mmHg 74%
    07:00 +13°C° 0 mm 2 mps 755 mmHg 70%
    08:00 +14°C° 0 mm 2 mps 755 mmHg 67%
    09:00 +15°C° 0 mm 2 mps 755 mmHg 63%
    10:00 +17°C° 0 mm 3 mps 755 mmHg 57%
    11:00 +18°C° 0 mm 3 mps 755 mmHg 51%
    12:00 +20°C° 0 mm 3 mps 755 mmHg 44%
    13:00 +20°C° 0 mm 3 mps 754 mmHg 43%
    14:00 +21°C° 0 mm 3 mps 754 mmHg 42%
    15:00 +21°C° 0 mm 3 mps 754 mmHg 41%
    16:00 +20°C° 0 mm 2 mps 754 mmHg 45%
    17:00 +18°C° 0 mm 2 mps 754 mmHg 49%
    18:00 +18°C° 0 mm 1 mps 754 mmHg 53%
    19:00 +16°C° 0 mm 2 mps 754 mmHg 56%
    20:00 +16°C° 0 mm 2 mps 754 mmHg 58%
    21:00 +15°C° 0 mm 2 mps 754 mmHg 61%
    22:00 +15°C° 0 mm 2 mps 754 mmHg 62%
    23:00 +14°C° 0 mm 2 mps 754 mmHg 64%

    Day after tomorrow, 25 October, Friday

    Time Temperature Precipitation Wind Pressure Humidity
    00:00 +14°C° 0 mm 2 mps 754 mmHg 66%
    01:00 +13°C° 0 mm 2 mps 754 mmHg 66%
    02:00 +13°C° 0 mm 2 mps 754 mmHg 67%
    03:00 +12°C° 0 mm 1 mps 754 mmHg 68%
    04:00 +12°C° 0 mm 1 mps 754 mmHg 67%
    05:00 +12°C° 0 mm 1 mps 754 mmHg 66%
    06:00 +12°C° 0 mm 1 mps 754 mmHg 66%
    07:00 +13°C° 0 mm 1 mps 754 mmHg 62%
    08:00 +14°C° 0 mm 1 mps 754 mmHg 59%
    09:00 +14°C° 0 mm 2 mps 754 mmHg 55%
    10:00 +16°C° 0 mm 2 mps 755 mmHg 50%
    11:00 +17°C° 0 mm 3 mps 755 mmHg 45%
    12:00 +19°C° 0 mm 4 mps 755 mmHg 40%
    13:00 +19°C° 0 mm 4 mps 755 mmHg 39%
    14:00 +19°C° 0 mm 4 mps 755 mmHg 38%
    15:00 +19°C° 0 mm 4 mps 755 mmHg 37%
    16:00 +18°C° 0 mm 3 mps 755 mmHg 43%
    17:00 +16°C° 0 mm 3 mps 755 mmHg 49%
    18:00 +14°C° 0 mm 3 mps 755 mmHg 54%
    19:00 +13°C° 0 mm 3 mps 755 mmHg 62%
    20:00 +13°C° 0 mm 3 mps 755 mmHg 69%
    21:00 +12°C° 0 mm 3 mps 755 mmHg 76%
    22:00 +12°C° 0 mm 3 mps 755 mmHg 73%
    23:00 +13°C° 0 mm 2 mps 755 mmHg 70%

    26 October, Saturday

    Time Temperature Precipitation Wind Pressure Humidity
    00:00 +13°C° 0 mm 2 mps 756 mmHg 67%
    01:00 +13°C° 0 mm 2 mps 756 mmHg 66%
    02:00 +12°C° 0 mm 2 mps 756 mmHg 65%
    03:00 +10°C° 0 mm 2 mps 756 mmHg 64%
    04:00 +10°C° 0 mm 2 mps 756 mmHg 64%
    05:00 +10°C° 0 mm 2 mps 756 mmHg 64%
    06:00 +10°C° 0 mm 2 mps 756 mmHg 64%
    07:00 +12°C° 0 mm 2 mps 756 mmHg 60%
    08:00 +13°C° 0 mm 2 mps 756 mmHg 55%
    09:00 +14°C° 0 mm 2 mps 757 mmHg 51%
    10:00 +15°C° 0 mm 2 mps 757 mmHg 46%
    11:00 +17°C° 0 mm 2 mps 757 mmHg 41%
    12:00 +18°C° 0 mm 2 mps 757 mmHg 37%
    13:00 +19°C° 0 mm 2 mps 756 mmHg 36%
    14:00 +19°C° 0 mm 2 mps 756 mmHg 36%
    15:00 +19°C° 0 mm 2 mps 756 mmHg 35%
    16:00 +18°C° 0 mm 2 mps 756 mmHg 39%
    17:00 +16°C° 0 mm 2 mps 756 mmHg 43%
    18:00 +15°C° 0 mm 2 mps 756 mmHg 47%
    19:00 +14°C° 0 mm 2 mps 756 mmHg 48%
    20:00 +14°C° 0 mm 2 mps 756 mmHg 49%
    21:00 +13°C° 0 mm 2 mps 756 mmHg 50%
    22:00 +13°C° 0 mm 2 mps 756 mmHg 50%
    23:00 +12°C° 0 mm 2 mps 756 mmHg 51%

    27 October, Sunday

    Time Temperature Precipitation Wind Pressure Humidity
    00:00 +12°C° 0 mm 2 mps 756 mmHg 52%
    01:00 +12°C° 0 mm 2 mps 756 mmHg 52%
    02:00 +10°C° 0 mm 2 mps 756 mmHg 53%
    03:00 +11°C° 0 mm 1 mps 755 mmHg 54%
    04:00 +11°C° 0 mm 1 mps 755 mmHg 55%
    05:00 +11°C° 0 mm 1 mps 755 mmHg 57%
    06:00 +10°C° 0 mm 1 mps 755 mmHg 58%
    07:00 +11°C° 0 mm 1 mps 755 mmHg 56%
    08:00 +12°C° 0 mm 2 mps 755 mmHg 54%
    09:00 +13°C° 0 mm 2 mps 755 mmHg 51%
    10:00 +15°C° 0 mm 2 mps 755 mmHg 47%
    11:00 +17°C° 0 mm 3 mps 755 mmHg 42%
    12:00 +18°C° 0 mm 3 mps 755 mmHg 38%
    13:00 +19°C° 0 mm 3 mps 754 mmHg 37%
    14:00 +19°C° 0 mm 3 mps 754 mmHg 37%
    15:00 +19°C° 0 mm 4 mps 753 mmHg 36%
    16:00 +18°C° 0 mm 3 mps 753 mmHg 41%
    17:00 +16°C° 0 mm 3 mps 753 mmHg 45%
    18:00 +14°C° 0 mm 3 mps 753 mmHg 50%
    19:00 +13°C° 0 mm 3 mps 752 mmHg 53%
    20:00 +13°C° 0 mm 3 mps 752 mmHg 57%
    21:00 +12°C° 0 mm 3 mps 752 mmHg 60%
    22:00 +12°C° 0 mm 3 mps 752 mmHg 63%
    23:00 +12°C° 0 mm 3 mps 752 mmHg 66%

    28 October, Monday

    Time Temperature Precipitation Wind Pressure Humidity
    00:00 +11°C° 0 mm 3 mps 752 mmHg 69%
    01:00 +11°C° 0 mm 3 mps 751 mmHg 70%
    02:00 +11°C° 0 mm 3 mps 751 mmHg 71%
    03:00 +11°C° 0 mm 3 mps 751 mmHg 72%
    04:00 +10°C° 0 mm 3 mps 751 mmHg 74%
    05:00 +10°C° 0 mm 3 mps 750 mmHg 76%
    06:00 +10°C° 0 mm 3 mps 750 mmHg 79%
    07:00 +11°C° 0 mm 3 mps 750 mmHg 76%
    08:00 +12°C° 0 mm 3 mps 750 mmHg 72%
    09:00 +13°C° 0 mm 4 mps 750 mmHg 69%
    10:00 +15°C° 0 mm 4 mps 750 mmHg 63%
    11:00 +17°C° 0 mm 4 mps 750 mmHg 57%
    12:00 +19°C° 0 mm 4 mps 750 mmHg 51%
    13:00 +19°C° 0 mm 4 mps 749 mmHg 50%
    14:00 +19°C° 0 mm 4 mps 749 mmHg 48%
    15:00 +20°C° 0 mm 4 mps 749 mmHg 47%
    16:00 +18°C° 0 mm 4 mps 749 mmHg 52%
    17:00 +17°C° 0 mm 3 mps 748 mmHg 57%
    18:00 +14°C° 0 mm 3 mps 748 mmHg 62%
    19:00 +14°C° 0 mm 3 mps 748 mmHg 63%
    20:00 +13°C° 0 mm 3 mps 748 mmHg 65%
    21:00 +12°C° 0 mm 3 mps 748 mmHg 67%
    22:00 +12°C° 0 mm 3 mps 748 mmHg 68%
    23:00 +12°C° 0 mm 3 mps 748 mmHg 70%

    29 October, Tuesday

    Time Temperature Precipitation Wind Pressure Humidity
    00:00 +12°C° 0 mm 3 mps 748 mmHg 71%
    01:00 +11°C° 0 mm 3 mps 748 mmHg 73%
    02:00 +11°C° 0 mm 3 mps 747 mmHg 74%
    03:00 +11°C° 0 mm 3 mps 747 mmHg 76%
    04:00 +11°C° 0 mm 3 mps 747 mmHg 77%
    05:00 +11°C° 0 mm 3 mps 747 mmHg 77%
    06:00 +10°C° 0 mm 3 mps 747 mmHg 77%
    07:00 +11°C° 0 mm 3 mps 747 mmHg 73%
    08:00 +12°C° 0 mm 4 mps 747 mmHg 69%
    09:00 +13°C° 0 mm 4 mps 747 mmHg 65%
    10:00 +14°C° 0 mm 5 mps 747 mmHg 60%
    11:00 +15°C° 0 mm 5 mps 747 mmHg 56%
    12:00 +17°C° 0 mm 6 mps 747 mmHg 52%
    13:00 +17°C° 0 mm 6 mps 747 mmHg 51%
    14:00 +17°C° 0 mm 6 mps 747 mmHg 49%
    15:00 +17°C° 0 mm 5 mps 747 mmHg 48%
    16:00 +16°C° 0 mm 5 mps 747 mmHg 52%
    17:00 +15°C° 0 mm 4 mps 747 mmHg 57%
    18:00 +14°C° 0 mm 3 mps 747 mmHg 61%
    19:00 +13°C° 0 mm 3 mps 747 mmHg 68%
    20:00 +12°C° 0 mm 3 mps 747 mmHg 75%
    21:00 +12°C° 0 mm 3 mps 747 mmHg 82%
    22:00 +11°C° 0.1 mm 3 mps 747 mmHg 81%
    23:00 +10°C° 0.1 mm 3 mps 748 mmHg 79%
    Show more